Flag for U.S.A. Weather past 2 weeks in Jersey City, New Jersey, U.S.A.

Now
50 °F

Clear.


Feels Like: 46 °F
Forecast: 50 / 67 °F
Wind: 10 mph from Northwest

Location: Newark International Airport

Current Time: May 23, 2015 at 5:28:21 AM

Latest Report: May 23, 2015 at 4:51 AM


Visibility: 10 mi

Pressure: 30.31 "Hg

Humidity: 38%

Dew point: 25 °F

Location of Jersey CityLocation

Historic Weather in Jersey City — Graph

°F

Jersey City temperature yesterday

Maximum temperature yesterday: 76 °F (at 2:51 PM)
Minimum temperature yesterday: 54 °F (at 12:51 AM)
Average temperature yesterday: 64 °F

Past Weeks' High & Low Weather Summary

 TemperatureHumidityPressure
High87 °F (May 10, 4:51 PM)100% (May 10, 1:51 AM)30.40 "Hg (May 10, 1:51 AM)
Low50 °F (May 14, 5:51 AM)14% (May 14, 3:51 PM)29.75 "Hg (May 12, 6:51 PM)
Average66 °F62%30.08 "Hg
* Reported May 8 3:51 AM — May 23 3:51 AM, Jersey City, Weather by CustomWeather, © 2015

Note: Actual official high and low records may vary slightly from our data, if they occured in-between our weather recording intervals... More about our weather records

Advertising

Jersey City weather history for previous 24 hours

 ConditionsComfort  
Time TempWeatherWind HumidityBarometerVisibility
3:51 AM
Sat, May 23
51 °FClear.14 mph36%30.28 "Hg10 mi
2:51 AM53 °FClear.14 mph35%30.25 "Hg10 mi
1:51 AM56 °FClear.15 mph34%30.22 "Hg10 mi
12:51 AM58 °FClear.15 mph39%30.18 "Hg10 mi
11:51 PM
Fri, May 22
60 °FClear.13 mph36%30.15 "Hg10 mi
10:51 PM63 °FPassing clouds.18 mph34%30.13 "Hg10 mi
9:51 PM64 °FPartly cloudy.15 mph43%30.08 "Hg10 mi
8:51 PM64 °FLight rain. Broken clouds.9 mph50%30.03 "Hg10 mi
7:51 PM68 °FBroken clouds.14 mph38%30.00 "Hg10 mi
6:51 PM70 °FScattered clouds.18 mph34%29.97 "Hg10 mi
5:51 PM73 °FScattered clouds.17 mph30%29.96 "Hg10 mi
4:51 PM72 °FPartly sunny.17 mph34%29.94 "Hg10 mi
3:51 PM72 °FPartly sunny.16 mph35%29.93 "Hg10 mi
2:51 PM76 °FPartly sunny.28 mph25%29.91 "Hg10 mi
1:51 PM74 °FPartly sunny.18 mph28%29.91 "Hg10 mi
12:51 PM75 °FScattered clouds.13 mph27%29.91 "Hg10 mi
11:51 AM73 °FPassing clouds.16 mph30%29.92 "Hg10 mi
10:51 AM71 °FPassing clouds.12 mph32%29.93 "Hg10 mi
9:51 AM67 °FSunny.15 mph39%29.93 "Hg10 mi
8:51 AM63 °FPassing clouds.15 mph47%29.92 "Hg10 mi
7:51 AM59 °FPassing clouds.9 mph58%29.92 "Hg10 mi
6:51 AM56 °FPassing clouds.8 mph67%29.91 "Hg10 mi
5:51 AM54 °FPassing clouds.9 mph69%29.89 "Hg10 mi
Weather by CustomWeather, © 2015

See weather overviewHow to use our weather pages